RH
42 53 60 29 20 16 13 14 31 28 34 42 54 74 68 52 52 52 51 50 41 32 24 16 15 16 21 32 37 36 34 32 35 34 38 41 39 38 32 31 30 30 32
22 29 45 59 57 27 16 15 18 29 29 40 54 86 88 83 68 61 59 56 51 52 49 36 28 24 28 35 40 35 35 36 37 37 42 43 46 43 44 37 34 33 29
21 21 25 40 54 59 56 44 45 22 22 32 55 92 95 94 87 75 68 67 66 66 64 56 50 40 35 35 35 38 40 42 42 42 48 49 49 52 52 51 55 56 49
22 24 23 23 28 38 50 65 64 76 71 43 67 77 86 90 95 85 71 75 76 60 62 62 64 61 58 55 51 50 50 48 45 50 53 54 53 54 58 56 57 59 68
5 8 23 28 27 29 29 43 60 73 88 96 96 95 66 68 96 95 94 78 79 74 66 64 64 62 61 59 54 53 51 48 45 46 49 54 54 55 53 57 62 63 67
10 7 4 13 32 32 32 34 39 54 82 96 95 96 95 73 63 93 98 97 97 80 71 54 63 69 69 64 50 46 43 43 47 50 51 49 47 49 50 54 57 64 70
14 12 9 4 5 21 36 36 41 41 47 73 95 97 97 94 69 54 93 96 80 76 80 74 67 68 64 62 61 53 51 51 49 54 47 39 43 46 47 51 56 57 62
18 16 14 10 5 4 9 29 40 43 48 51 60 77 84 90 86 69 57 96 96 74 58 55 60 72 69 60 54 52 52 50 53 51 52 51 44 32 30 36 49 57 54
22 21 19 17 12 6 4 4 13 33 44 51 60 57 61 67 80 95 89 71 84 97 95 89 78 67 64 61 56 50 47 47 47 49 51 50 50 54 54 53 42 38 45
36 27 23 21 18 13 8 7 5 4 10 28 56 55 50 48 61 77 97 94 84 78 90 92 96 91 83 77 72 65 59 53 48 47 48 50 53 54 54 54 50 42 48
33 37 34 27 24 21 16 12 10 8 5 4 6 22 55 51 48 62 71 96 96 93 87 91 98 100 92 92 84 85 76 60 56 54 55 61 67 66 61 54 57 64 77
13 22 30 34 33 29 25 21 17 14 11 9 6 5 5 20 42 57 58 55 97 80 97 94 81 97 95 97 98 94 94 84 71 70 73 80 73 69 72 72 73 78 77
17 11 14 23 30 33 31 29 26 24 19 16 13 10 7 6 5 10 30 50 66 73 78 78 97 97 98 96 95 94 94 91 91 88 82 85 88 86 93 92 86 88 92
66 42 12 10 16 24 28 27 26 24 24 22 20 18 16 12 8 6 5 5 12 27 55 74 88 85 100 98 96 95 82 92 94 96 86 98 96 94 90 94 87 85 78
47 54 57 37 10 10 14 19 22 23 25 23 18 15 15 16 14 12 10 8 6 6 5 11 45 81 98 96 95 97 100 98 97 97 95 98 96 97 91 90 92 83 76
46 33 31 26 20 15 10 9 10 12 13 16 21 20 16 12 10 11 11 11 10 9 8 7 6 15 56 68 84 99 97 97 97 98 97 97 96 96 95 93 92 97 86
23 23 24 25 26 24 22 18 16 13 10 8 8 9 13 17 18 17 16 13 11 9 9 10 9 8 11 28 42 89 93 97 98 98 98 100 98 94 92 96 94 97 93
49 54 42 30 29 29 25 21 20 21 20 19 17 12 8 7 8 11 12 12 12 12 11 10 8 8 8 14 35 41 63 99 100 99 97 96 95 89 96 98 97 96 97
23 23 19 24 42 53 50 36 30 28 24 21 20 18 15 12 9 8 8 8 8 8 8 8 8 8 9 32 56 61 65 68 88 86 89 97 94 97 95 97 96 98 94
31 31 35 32 34 34 27 25 31 39 42 42 39 36 33 31 30 31 32 31 30 32 37 31 20 21 24 30 42 56 80 91 91 85 78 87 85 90 92 91 98 93 97
18 15 18 16 12 11 13 25 27 30 23 26 30 29 25 26 37 60 68 64 57 48 39 38 42 45 47 48 47 50 51 64 76 75 78 73 70 94 90 97 98 94 98
22 26 28 27 26 21 15 14 12 11 17 30 38 38 45 42 35 31 48 71 77 84 86 76 46 44 50 49 46 40 50 55 58 92 80 86 97 74 81 89 97 92 95
17 17 17 17 19 22 29 35 33 26 19 16 15 21 35 60 57 41 51 60 82 88 99 100 99 62 51 96 73 100 84 100 95 63 70 95 82 98 96 98 85 94 91
19 19 20 21 20 19 19 20 24 35 41 37 29 21 16 19 47 71 48 66 84 89 99 100 100 100 91 46 48 100 100 97 97 82 87 81 100 99 99 99 99 97 98
23 24 25 25 25 25 26 26 26 26 26 34 47 44 28 21 17 36 77 79 62 77 86 83 95 100 100 69 47 44 66 66 96 79 90 100 99 99 99 97 98 99 98
24 24 26 27 29 30 31 31 31 31 30 31 32 33 49 59 40 35 36 52 93 90 72 73 81 94 95 89 71 47 38 98 100 97 98 98 100 94 71 50 57 65 54
Wind_Speed
37 36 34 33 32 32 31 31 29 26 24 25 25 30 34 34 33 32 31 30 28 28 27 27 27 25 24 23 22 22 23 23 21 19 18 16 14 14 15 15 15 16 16
39 39 39 38 37 36 35 36 34 30 28 25 24 25 32 34 33 34 34 32 33 33 30 29 27 26 26 27 26 25 25 24 23 23 21 19 17 15 16 17 18 18 19
45 42 41 42 42 40 39 39 37 33 29 26 25 22 28 30 32 34 35 35 36 36 34 32 31 30 30 29 28 28 27 26 24 25 22 21 20 18 17 18 19 19 20
50 50 47 43 44 44 44 42 40 38 33 31 30 27 24 26 30 34 34 36 35 35 34 34 33 34 34 32 31 31 30 29 27 26 26 24 23 22 22 21 22 23 20
47 49 52 50 47 46 46 46 44 41 39 37 37 34 27 29 28 32 31 31 31 31 32 31 32 31 31 32 33 32 31 29 28 27 27 26 25 26 27 26 24 23 20
53 51 49 52 53 51 48 48 47 45 43 42 39 44 34 32 33 34 29 31 28 30 31 31 29 29 28 27 28 29 28 26 26 27 28 28 28 28 27 28 27 23 23
57 56 54 52 52 55 54 52 51 49 47 44 44 43 44 36 36 36 33 32 30 33 34 34 33 31 31 30 30 30 29 29 28 27 27 26 25 26 27 28 28 28 28
63 62 59 57 54 52 53 56 55 53 50 49 48 48 47 44 40 39 40 39 37 39 38 38 37 37 36 34 33 33 33 33 33 31 30 29 28 28 28 28 28 30 31
69 67 64 62 60 57 54 51 54 57 56 53 51 52 51 47 44 44 44 44 44 43 43 42 42 42 41 39 38 36 36 36 34 36 36 36 36 34 34 33 34 33 36
75 72 69 67 64 62 61 57 55 53 55 56 55 55 55 54 49 46 46 47 47 48 47 46 48 48 46 45 42 40 40 41 39 37 38 37 39 38 37 37 39 40 39
76 75 75 72 69 67 63 62 60 59 57 54 55 55 56 56 56 53 49 50 52 51 53 53 49 51 53 50 48 45 44 45 43 39 39 39 41 43 43 43 41 40 37
80 77 75 73 73 71 68 66 64 62 62 60 59 58 56 55 55 58 59 57 54 56 58 56 55 54 57 50 49 51 48 46 45 43 42 42 45 45 46 44 44 43 42
70 78 77 74 72 71 71 69 67 65 64 64 63 63 62 60 59 61 60 59 59 62 60 62 49 53 54 57 53 53 51 52 50 50 48 47 49 47 43 41 42 44 48
62 62 72 77 73 70 70 70 68 67 67 66 67 67 67 66 66 66 65 66 66 65 62 60 65 60 57 66 68 66 59 59 53 55 51 52 51 48 47 46 43 46 47
43 57 56 59 70 73 71 70 70 69 70 69 68 69 69 69 70 69 70 71 72 71 68 66 67 61 65 61 62 57 57 61 57 50 54 55 56 53 54 51 49 48 46
23 28 34 41 45 54 63 70 75 75 74 73 73 74 74 73 72 71 72 73 74 75 75 71 69 69 70 72 63 62 59 63 65 56 61 55 55 59 54 55 52 50 46
16 23 27 31 36 43 49 55 61 67 72 76 78 79 79 79 78 78 79 78 78 78 78 74 75 75 73 72 71 69 67 51 54 58 55 59 71 67 57 51 52 50 48
17 20 22 24 27 30 33 39 45 51 56 60 65 71 79 85 84 83 84 84 84 84 84 81 79 80 79 76 73 73 70 66 63 67 58 58 51 53 65 55 50 46 52
32 26 16 10 22 29 30 32 35 39 44 51 56 61 64 70 75 80 84 86 87 88 89 89 85 83 82 76 74 73 75 78 77 77 84 71 67 62 60 57 49 52 55
31 33 32 34 33 31 23 10 13 28 39 45 48 51 55 61 66 71 75 78 81 83 83 84 86 84 82 80 79 77 74 73 73 73 78 74 71 67 65 61 66 64 56
27 28 26 28 29 28 28 22 23 18 16 17 19 18 21 35 52 66 71 71 72 71 69 68 68 71 74 76 74 71 73 73 73 72 73 74 73 61 62 59 55 56 57
24 24 24 23 22 23 22 23 23 23 21 18 16 17 21 22 23 31 45 52 54 59 63 63 56 51 51 51 52 61 61 60 63 48 57 60 64 62 67 77 71 60 54
23 23 22 21 21 21 20 20 21 22 22 24 25 24 22 21 24 24 24 29 34 38 42 49 53 50 46 40 41 38 42 45 55 55 57 51 48 62 59 61 68 57 55
27 27 26 26 25 24 23 22 21 21 22 24 25 26 28 29 25 25 24 20 20 20 27 35 41 44 45 43 42 42 37 42 41 46 47 51 47 47 44 40 40 43 45
26 26 26 25 24 24 24 23 24 26 26 26 27 28 28 29 30 27 21 22 16 16 24 26 32 40 40 43 45 44 48 38 42 40 45 45 62 48 50 50 48 45 44
26 26 25 24 23 23 24 24 25 26 27 28 28 28 29 30 30 30 28 24 21 19 15 16 19 25 30 35 38 43 42 43 36 42 40 39 38 44 41 41 40 43 46
Wind_Direction
263 261 262 261 261 263 265 267 267 271 275 278 289 264 259 259 261 264 265 269 273 275 274 272 270 270 269 274 280 289 295 300 301 305 303 304 301 303 298 296 295 296 296
262 263 261 260 261 262 263 265 266 265 270 279 290 276 257 258 261 264 268 269 271 274 275 277 275 273 272 274 280 285 289 294 297 300 301 301 299 293 296 295 294 297 296
259 258 258 261 262 261 261 263 266 268 267 270 273 279 262 259 265 268 266 267 268 272 276 274 274 275 275 279 281 283 285 288 291 292 293 293 294 292 292 289 291 296 296
260 259 256 254 256 260 261 261 262 265 264 262 263 260 266 263 266 264 264 266 271 272 272 272 274 276 275 276 279 280 282 285 286 286 289 287 289 291 291 290 294 297 301
263 261 259 256 253 254 257 260 260 261 262 261 260 259 258 266 269 262 262 265 268 269 269 272 275 276 277 279 279 279 280 283 285 285 285 286 287 289 292 292 296 302 298
262 261 261 259 257 253 253 256 258 258 258 260 260 265 260 259 263 271 253 261 265 267 270 272 271 276 279 282 284 283 281 280 282 283 284 285 286 288 291 293 295 296 293
258 258 257 257 257 256 252 251 254 255 256 256 257 259 262 260 260 264 269 262 267 266 268 269 270 272 276 278 279 281 284 283 282 284 286 286 288 289 291 295 296 294 291
256 255 256 254 254 256 255 253 251 253 253 255 256 256 258 258 260 260 261 263 263 265 267 269 270 270 270 272 275 279 281 283 286 287 287 287 287 287 290 295 299 298 293
257 255 253 253 251 252 254 255 255 253 252 252 254 257 257 258 257 259 258 258 261 263 266 268 268 269 269 269 271 274 276 276 278 282 283 285 287 288 289 292 293 294 292
254 254 253 251 250 249 250 251 254 255 255 253 252 254 258 258 256 253 255 256 258 259 260 263 267 268 269 269 268 270 272 274 274 277 280 282 283 284 286 286 289 291 289
255 252 251 251 250 249 248 249 250 252 254 256 257 254 256 258 259 258 252 254 256 255 256 256 258 265 268 269 272 271 270 271 274 274 274 278 277 279 281 283 284 285 284
256 255 252 250 249 249 248 248 249 250 251 253 256 256 256 257 259 261 259 255 255 257 261 256 258 260 258 261 266 272 272 273 274 274 274 275 275 276 279 279 279 279 280
254 251 252 252 249 249 249 249 249 250 252 253 254 256 257 256 257 260 262 261 258 256 260 260 261 256 264 261 263 265 269 272 273 275 273 274 274 272 278 275 278 280 279
256 256 252 250 253 251 251 251 251 251 252 253 254 255 256 257 257 258 260 262 263 263 260 262 262 266 265 264 263 264 266 267 268 271 277 275 275 273 274 274 278 280 280
257 257 257 258 253 252 254 255 254 254 254 254 255 257 257 257 258 259 260 261 263 263 263 261 261 262 259 262 264 268 268 266 266 266 269 268 272 269 274 276 277 280 279
246 245 247 256 254 254 255 255 256 256 256 256 256 256 257 258 259 260 260 261 262 264 263 264 264 262 259 262 263 266 265 266 265 268 261 264 269 265 271 278 279 278 274
278 263 258 257 257 256 255 254 253 254 255 254 254 256 257 258 259 259 260 260 261 262 263 261 264 265 264 261 261 258 263 265 263 260 256 264 263 270 276 270 274 267 268
297 282 276 269 262 259 260 261 261 261 261 261 259 258 256 255 258 259 260 260 261 261 261 259 261 263 264 262 262 262 259 260 260 265 270 271 270 276 279 270 262 276 278
48 45 34 318 275 268 267 266 265 265 266 265 264 262 259 259 258 259 259 258 258 259 259 259 258 259 261 261 261 261 260 260 265 264 268 272 272 275 275 273 267 283 280
51 46 50 53 52 58 59 39 285 271 268 266 265 265 265 265 263 262 262 262 262 262 263 261 259 258 258 260 261 261 262 263 264 265 267 274 278 280 281 280 271 281 271
44 45 49 44 40 42 41 46 46 48 43 32 21 353 313 287 276 269 265 263 261 261 261 262 264 266 267 267 268 269 269 271 268 269 270 271 273 275 274 273 275 277 276
31 33 32 33 28 28 26 21 19 18 20 15 15 10 6 356 327 295 278 271 267 263 261 260 260 261 261 263 268 271 269 270 271 268 271 267 270 268 264 270 276 280 278
7 9 11 10 10 10 11 8 3 0 358 357 355 358 1 358 355 341 320 293 278 269 267 257 254 257 257 251 255 265 256 249 257 262 259 270 261 266 274 268 272 271 269
353 353 354 354 353 351 348 346 345 344 344 343 343 342 344 349 356 356 348 323 294 283 284 268 251 247 248 249 253 250 261 265 266 266 264 268 258 268 262 261 262 260 256
342 343 343 342 342 342 342 340 337 334 332 331 331 330 331 333 336 342 352 350 329 275 264 268 257 246 245 249 252 257 266 274 273 271 271 254 252 258 259 257 256 257 254
332 332 331 330 329 330 330 330 329 327 325 323 320 319 320 321 322 324 327 332 333 329 300 279 276 266 261 259 260 263 264 259 267 264 258 259 258 260 264 268 267 262 258